Flag for Central African Republic Weather past 2 weeks in Bimbo, Central African Republic

Now
90 °F

Partly sunny.


Feels Like: 98 °F
Forecast: 73 / 86 °F
Wind: 2 mph from North

Location: Bangui Airport

Current Time: Oct 20, 2014 at 2:14:35 PM

Latest Report: Oct 20, 2014 at 1:00 PM


Visibility: N/A

Pressure: 29.83 "Hg

Humidity: 59%

Dew point: 73 °F

Location of BimboLocation

Historic Weather in Bimbo — Graph

°F

Bimbo temperature yesterday

Maximum temperature yesterday: 90 °F (at 1:00 PM)
Minimum temperature yesterday: 73 °F (at 3:00 AM)
Average temperature yesterday: 80 °F

Past Weeks' High & Low Weather Summary

 TemperatureHumidityPressure
High95 °F (Oct 17, 1:00 PM)100% (Oct 6, 1:00 AM)30.04 "Hg (Oct 6, 1:00 AM)
Low68 °F (Oct 12, 4:00 AM)41% (Oct 17, 1:00 PM)29.74 "Hg (Oct 8, 4:00 PM)
Average79 °F83%29.87 "Hg
* Reported Oct 5 12:00 Noon — Oct 20 12:00 Noon, Bimbo, Weather by CustomWeather, © 2014

Note: Actual official high and low records may vary slightly from our data, if they occured in-between our weather recording intervals... More about our weather records

Advertising

Bimbo weather history for previous 24 hours

 ConditionsComfort  
Time TempWeatherWind HumidityBarometerVisibility
12:00 PM
Oct 20
90 °FPartly sunny.3 mph55%29.89 "HgN/A
11:00 AM86 °FPartly sunny.N/A66%29.92 "HgN/A
10:00 AM84 °FPartly sunny.2 mph70%29.95 "HgN/A
9:00 AM81 °FPartly sunny.3 mph84%29.95 "HgN/A
7:00 AM75 °FPartly sunny.No wind94%29.92 "Hg5 mi
6:00 AM72 °FPartly sunny.No wind100%29.92 "Hg5 mi
4:00 AM72 °FFog.No wind100%29.89 "Hg1 mi
3:00 AM72 °FPassing clouds.No wind100%29.89 "Hg4 mi
2:00 AM72 °FClear.No wind100%29.89 "Hg10 mi
1:00 AM73 °FClear.No wind100%29.89 "Hg10 mi
12:00 AM73 °FClear.2 mph100%29.89 "Hg10 mi
11:00 PM
Oct 19
73 °FClear.3 mph100%29.92 "Hg10 mi
10:00 PM75 °FClear.3 mph94%29.92 "Hg10 mi
9:00 PM75 °FClear.5 mph94%29.92 "Hg10 mi
8:00 PM77 °FClear.5 mph89%29.89 "Hg10 mi
7:00 PM77 °FPassing clouds.3 mph89%29.86 "HgN/A
6:00 PM79 °FPassing clouds.10 mph84%29.83 "HgN/A
5:00 PM82 °FBroken clouds.7 mph70%29.80 "HgN/A
4:00 PM86 °FBroken clouds.7 mph66%29.77 "HgN/A
3:00 PM88 °FBroken clouds.3 mph62%29.80 "HgN/A
2:00 PM90 °FBroken clouds.6 mph59%29.80 "HgN/A
Weather by CustomWeather, © 2014

See weather overviewHow to use our weather pages